DW7854 Weather Reports


time (UTC)temp
C
wind
direction
speed
KPH
gust
KPH
rain 1hr
cm
rain 24hr
cm
rain mn
cm
humidity
%
barometer
mb
20260905191506 38 169 8.0 14.5 0.00 0.00 0.00 44 1010.5
20260905191406 38 176 6.4 16.1 0.00 0.00 0.00 44 1010.9
20260905190506 38 157 4.8 16.1 0.00 0.00 0.00 44 1011.1
20260905190107 37 175 6.4 12.9 0.00 0.00 0.00 45 1010.9
20260905185606 37 74 3.2 9.7 0.00 0.00 0.00 46 1011.3
20260905184706 37 89 4.8 11.3 0.00 0.00 0.00 47 1011.6
20260905184507 36 97 6.4 11.3 0.00 0.00 0.00 46 1011.2
20260905183106 37 113 8.0 16.1 0.00 0.00 0.00 46 1011.4
20260905182005 37 160 4.8 16.1 0.00 0.00 0.00 47 1011.9
20260905181504 37 100 4.8 17.7 0.00 0.00 0.00 47 1011.6
20260905181106 37 160 8.0 16.1 0.00 0.00 0.00 47 1012.1
20260905180005 37 157 9.7 16.1 0.00 0.00 0.00 47 1011.8
20260905175306 37 187 6.4 16.1 0.00 0.00 0.00 48 1012.3
20260905174607 36 140 1.6 11.3 0.00 0.00 0.00 50 1012.0
20260905174406 37 178 4.8 11.3 0.00 0.00 0.00 48 1012.4
20260905173505 37 181 4.8 12.9 0.00 0.00 0.00 48 1012.4
20260905173106 36 179 4.8 12.9 0.00 0.00 0.00 49 1012.1
20260905172606 36 154 6.4 12.9 0.00 0.00 0.00 51 1012.5
20260905171706 36 172 8.0 12.9 0.00 0.00 0.00 50 1012.6
20260905171603 36 159 8.0 12.9 0.00 0.00 0.00 53 1012.2
20260905170805 35 135 3.2 12.9 0.00 0.00 0.00 54 1012.7
20260905170004 35 170 3.2 9.7 0.00 0.00 0.00 55 1012.5
20260905165905 35 182 4.8 11.3 0.00 0.00 0.00 55 1012.9
20260905165006 36 199 3.2 11.3 0.00 0.00 0.00 54 1013.0
20260905164504 36 276 3.2 11.3 0.00 0.00 0.00 53 1012.6
20260905164105 36 172 6.4 12.9 0.00 0.00 0.00 53 1013.0
20260905163206 36 156 4.8 9.7 0.00 0.00 0.00 55 1013.1
20260905163006 35 126 4.8 9.7 0.00 0.00 0.00 56 1012.8
20260905162306 35 247 3.2 9.7 0.00 0.00 0.00 56 1013.1
20260905161503 35 211 3.2 11.3 0.00 0.00 0.00 57 1012.8
20260905161405 35 215 4.8 11.3 0.00 0.00 0.00 57 1013.1
20260905160505 35 232 3.2 9.7 0.00 0.00 0.00 59 1013.2
20260905160005 35 355 1.6 11.3 0.00 0.00 0.00 58 1012.8
20260905154613 34 88 1.6 8.0 0.00 0.00 0.00 60 1012.8
20260905153806 34 182 4.8 9.7 0.00 0.00 0.00 62 1013.2
20260905153003 33 244 3.2 9.7 0.00 0.00 0.00 63 1012.9
20260905152905 33 242 3.2 9.7 0.00 0.00 0.00 64 1013.2
20260905152006 33 169 1.6 6.4 0.00 0.00 0.00 64 1013.1
20260905151515 32 107 1.6 6.4 0.00 0.00 0.00 64 1012.8
20260905150205 32 167 3.2 8.0 0.00 0.00 0.00 65 1013.1
20260905150003 32 120 3.2 8.0 0.00 0.00 0.00 65 1012.7
20260905145307 32 158 4.8 9.7 0.00 0.00 0.00 66 1013.1
20260905144609 31 180 3.2 9.7 0.00 0.00 0.00 68 1012.7
20260905144405 32 153 3.2 9.7 0.00 0.00 0.00 69 1013.1
20260905143505 31 133 3.2 4.8 0.00 0.00 0.00 72 1013.0
20260905143006 30 120 1.6 4.8 0.00 0.00 0.00 72 1012.7
20260905141705 30 122 3.2 4.8 0.00 0.00 0.00 74 1013.1
20260905141522 29 136 3.2 6.4 0.00 0.00 0.00 75 1012.8
20260905140805 29 106 3.2 8.0 0.00 0.00 0.00 75 1013.2
20260905140106 28 111 0.0 4.8 0.00 0.00 0.00 77 1012.7
20260905135905 28 111 3.2 4.8 0.00 0.00 0.00 77 1013.1
20260905135006 28 109 3.2 8.0 0.00 0.00 0.00 80 1013.0
20260905134507 27 111 0.0 6.4 0.00 0.00 0.00 81 1012.7
20260905134105 27 88 1.6 6.4 0.00 0.00 0.00 82 1013.0
20260905133205 26 79 0.0 4.8 0.00 0.00 0.00 85 1013.0
20260905133104 26 61 0.0 4.8 0.00 0.00 0.00 85 1012.6
20260905132306 26 58 1.6 4.8 0.00 0.00 0.00 86 1012.8
20260905131608 25 54 1.6 4.8 0.00 0.00 0.00 87 1012.5
20260905131405 25 37 1.6 4.8 0.00 0.00 0.00 88 1012.8
20260905130505 25 50 1.6 4.8 0.00 0.00 0.00 90 1012.8
20260905130003 24 86 1.6 4.8 0.00 0.00 0.00 90 1012.4
20260905125605 24 51 1.6 4.8 0.00 0.00 0.00 91 1012.9
20260905124507 23 5 0.0 1.6 0.00 0.00 0.00 92 1012.5
20260905123805 24 10 1.6 4.8 0.00 0.00 0.00 92 1013.0
20260905123006 23 5 1.6 4.8 0.00 0.00 0.00 92 1012.7
20260905122905 23 23 0.0 4.8 0.00 0.00 0.00 92 1013.1
20260905122005 23 357 0.0 3.2 0.00 0.00 0.00 92 1013.1
20260905121505 23 344 0.0 1.6 0.00 0.00 0.00 92 1012.7
20260905121105 23 343 0.0 3.2 0.00 0.00 0.00 91 1012.9
20260905120205 23 342 1.6 3.2 0.00 0.00 0.00 91 1012.9
20260905120004 23 344 0.0 3.2 0.00 0.00 0.00 91 1012.6
20260905115306 23 187 0.0 3.2 0.00 0.00 0.00 91 1012.9
20260905114504 23 180 0.0 1.6 0.00 0.00 0.00 91 1012.6
20260905114405 23 181 0.0 1.6 0.00 0.00 0.00 91 1012.9
20260905113505 23 0 0.0 0.0 0.00 0.00 0.00 90 1012.8
20260905113103 23 152 0.0 0.0 0.00 0.00 0.00 90 1012.5
20260905112605 23 0 0.0 0.0 0.00 0.00 0.00 90 1012.8
20260905111705 23 0 0.0 0.0 0.00 0.00 0.00 90 1012.8
20260905111607 23 152 0.0 0.0 0.00 0.00 0.00 90 1012.5
20260905110805 23 0 0.0 0.0 0.00 0.00 0.00 90 1012.8
20260905110003 23 152 0.0 3.2 0.00 0.00 0.00 89 1012.5
20260905105905 23 152 0.0 1.6 0.00 0.00 0.00 89 1012.8
20260905105005 24 152 0.0 1.6 0.00 0.00 0.00 89 1012.7
20260905104602 23 152 0.0 3.2 0.00 0.00 0.00 89 1012.4
20260905104105 24 152 0.0 1.6 0.00 0.00 0.00 89 1012.7
20260905103205 24 152 0.0 1.6 0.00 0.00 0.00 88 1012.5
20260905103003 23 152 0.0 1.6 0.00 0.00 0.00 88 1012.2
20260905102306 24 152 0.0 1.6 0.00 0.00 0.00 88 1012.5
20260905101611 23 152 0.0 1.6 0.00 0.00 0.00 88 1012.3
20260905101405 24 152 0.0 1.6 0.00 0.00 0.00 88 1012.6
20260905100505 24 152 0.0 1.6 0.00 0.00 0.00 88 1012.6
20260905100004 24 152 0.0 1.6 0.00 0.00 0.00 88 1012.1
20260905095605 24 152 0.0 1.6 0.00 0.00 0.00 87 1012.4
20260905094705 24 0 0.0 0.0 0.00 0.00 0.00 87 1012.3
20260905094508 24 152 0.0 0.0 0.00 0.00 0.00 87 1012.1
20260905093805 24 152 1.6 3.2 0.00 0.00 0.00 87 1012.3
20260905093002 24 152 1.6 3.2 0.00 0.00 0.00 87 1012.0
20260905092905 25 152 1.6 3.2 0.00 0.00 0.00 87 1012.2
20260905092005 25 151 0.0 1.6 0.00 0.00 0.00 86 1012.3
20260905091504 25 152 0.0 1.6 0.00 0.00 0.00 86 1011.9
20260905091105 25 151 0.0 1.6 0.00 0.00 0.00 85 1012.2
20260905090205 25 152 0.0 1.6 0.00 0.00 0.00 85 1012.3
20260905090003 25 152 0.0 1.6 0.00 0.00 0.00 85 1011.9
20260905085306 25 152 1.6 3.2 0.00 0.00 0.00 85 1012.2
20260905084602 25 152 1.6 3.2 0.00 0.00 0.00 85 1011.8
20260905084405 25 152 1.6 3.2 0.00 0.00 0.00 84 1012.1
20260905083505 25 152 1.6 3.2 0.00 0.00 0.00 84 1012.0
20260905083005 25 152 1.6 3.2 0.00 0.00 0.00 84 1011.7
20260905082605 25 152 1.6 3.2 0.00 0.00 0.00 84 1011.9
20260905081705 26 152 0.0 1.6 0.00 0.00 0.00 83 1012.0
20260905081505 25 152 0.0 0.0 0.00 0.00 0.00 83 1011.7
20260905080805 26 151 0.0 1.6 0.00 0.00 0.00 82 1012.0
20260905080011 26 152 0.0 1.6 0.00 0.00 0.00 82 1011.7
20260905074508 26 152 0.0 1.6 0.00 0.00 0.00 80 1011.8
20260905073205 26 152 0.0 1.6 0.00 0.00 0.00 80 1012.2
20260905073102 26 152 0.0 1.6 0.00 0.00 0.00 79 1011.9
20260905072306 27 152 0.0 1.6 0.00 0.00 0.00 79 1012.2
20260905071605 26 152 0.0 3.2 0.00 0.00 0.00 78 1011.8
20260905071405 27 152 1.6 3.2 0.00 0.00 0.00 78 1012.2
20260905070505 27 0 0.0 0.0 0.00 0.00 0.00 78 1012.3
20260905070119 27 152 0.0 1.6 0.00 0.00 0.00 78 1011.9
20260905065605 27 152 0.0 1.6 0.00 0.00 0.00 77 1012.3
20260905064707 27 151 0.0 3.2 0.00 0.00 0.00 77 1012.2
20260905064603 27 152 0.0 3.2 0.00 0.00 0.00 77 1012.0
20260905063805 27 152 1.6 3.2 0.00 0.00 0.00 77 1012.2
20260905063111 27 152 0.0 3.2 0.00 0.00 0.00 76 1011.8
20260905062005 27 151 0.0 1.6 0.00 0.00 0.00 76 1012.2
20260905061506 27 152 0.0 1.6 0.00 0.00 0.00 76 1011.9
20260905061105 27 151 0.0 3.2 0.00 0.00 0.00 76 1012.2
20260905060006 27 152 0.0 3.2 0.00 0.00 0.00 76 1011.9
20260905054606 27 152 0.0 3.2 0.00 0.00 0.00 76 1012.0
20260905054405 27 151 0.0 3.2 0.00 0.00 0.00 76 1012.3
20260905053005 27 152 0.0 1.6 0.00 0.00 0.00 75 1011.9
20260905052605 28 152 0.0 1.6 0.00 0.00 0.00 75 1012.1
20260905051604 27 152 0.0 1.6 0.00 0.00 0.00 75 1011.7
20260905050805 28 151 0.0 1.6 0.00 0.00 0.00 75 1012.1
20260905050004 27 152 0.0 1.6 0.00 0.00 0.00 75 1011.9
20260905045905 28 152 0.0 3.2 0.00 0.00 0.00 75 1012.1
20260905045005 28 151 0.0 3.2 0.00 0.00 0.00 75 1012.2
20260905044622 27 152 0.0 4.8 0.00 0.00 0.00 75 1011.9
20260905044105 28 151 1.6 3.2 0.00 0.00 0.00 75 1012.2
20260905043205 28 0 0.0 0.0 0.00 0.00 0.00 76 1012.1
20260905043002 27 152 0.0 0.0 0.00 0.00 0.00 76 1011.9
20260905042307 28 0 0.0 0.0 0.00 0.00 0.00 76 1012.2
20260905041507 27 152 0.0 0.0 0.00 0.00 0.00 76 1011.9
20260905041405 28 0 0.0 0.0 0.00 0.00 0.00 76 1012.2
20260905040505 28 0 0.0 0.0 0.00 0.00 0.00 75 1012.3
20260905040008 27 152 0.0 0.0 0.00 0.00 0.00 75 1012.0
20260905035605 28 0 0.0 0.0 0.00 0.00 0.00 75 1012.3
20260905034705 28 0 0.0 0.0 0.00 0.00 0.00 75 1012.2
20260905034505 28 152 0.0 0.0 0.00 0.00 0.00 75 1011.9
20260905033106 28 152 0.0 0.0 0.00 0.00 0.00 74 1011.8
20260905032905 28 0 0.0 0.0 0.00 0.00 0.00 74 1012.1
20260905032005 28 0 0.0 0.0 0.00 0.00 0.00 73 1012.1
20260905031608 28 152 0.0 0.0 0.00 0.00 0.00 73 1011.9
20260905031105 29 0 0.0 0.0 0.00 0.00 0.00 72 1012.1
20260905030205 29 0 0.0 0.0 0.00 0.00 0.00 71 1012.0
20260905030106 29 152 0.0 0.0 0.00 0.00 0.00 71 1011.7
20260905025306 30 0 0.0 0.0 0.00 0.00 0.00 71 1011.8
20260905024508 29 152 0.0 0.0 0.00 0.00 0.00 70 1011.5
20260905024405 30 0 0.0 0.0 0.00 0.00 0.00 70 1011.8
20260905023505 30 152 0.0 1.6 0.00 0.00 0.00 70 1011.8
20260905023010 30 152 0.0 1.6 0.00 0.00 0.00 69 1011.3
20260905022605 30 0 0.0 0.0 0.00 0.00 0.00 68 1011.6
20260905021705 30 152 0.0 1.6 0.00 0.00 0.00 68 1011.5
20260905021508 30 152 0.0 3.2 0.00 0.00 0.00 68 1011.2
20260905020805 30 152 1.6 3.2 0.00 0.00 0.00 68 1011.4
20260905020006 30 152 0.0 3.2 0.00 0.00 0.00 67 1011.0
20260905015905 31 152 0.0 3.2 0.00 0.00 0.00 67 1011.3
20260905015005 31 151 0.0 3.2 0.00 0.00 0.00 66 1011.3
20260905014509 31 152 0.0 3.2 0.00 0.00 0.00 66 1010.9
20260905014105 31 164 3.2 4.8 0.00 0.00 0.00 65 1011.2
20260905013205 31 167 4.8 11.3 0.00 0.00 0.00 65 1011.2
20260905013102 31 175 3.2 11.3 0.00 0.00 0.00 65 1010.9
20260905012306 32 156 3.2 11.3 0.00 0.00 0.00 63 1011.2
20260905011504 32 138 3.2 9.7 0.00 0.00 0.00 62 1010.7
20260905011405 32 155 4.8 9.7 0.00 0.00 0.00 62 1011.0
20260905010505 32 147 6.4 11.3 0.00 0.00 0.00 60 1011.0
20260905010003 32 161 6.4 11.3 0.00 0.00 0.00 57 1010.8
20260905005605 33 140 0.0 6.4 0.00 0.00 0.00 55 1010.9
20260905004637 33 141 0.0 0.0 0.00 0.00 0.00 54 1010.5
20260905003805 34 140 0.0 1.6 0.00 0.00 0.00 53 1010.8
20260905003005 34 141 0.0 3.2 0.00 0.00 0.00 53 1010.5
20260905002905 34 140 1.6 1.6 0.00 0.00 0.00 52 1010.8
20260905002005 35 126 0.0 3.2 0.00 0.00 0.00 51 1010.7
20260905001502 34 360 0.0 3.2 0.00 0.00 0.00 51 1010.4
20260905001105 35 123 1.6 3.2 0.00 0.00 0.00 50 1010.8
20260905000205 35 141 1.6 4.8 0.00 0.00 0.00 50 1010.7
20260905000003 35 68 0.0 4.8 0.00 0.00 0.00 50 1010.4
20260904235306 35 150 3.2 4.8 0.00 0.00 0.00 48 1010.5
20260904234602 35 150 3.2 6.4 0.00 0.00 0.00 49 1010.2
20260904233505 35 166 3.2 6.4 0.00 0.00 0.00 48 1010.6
20260904233103 35 186 1.6 6.4 0.00 0.00 0.00 47 1010.2
20260904232605 36 169 3.2 6.4 0.00 0.00 0.00 46 1010.6
20260904231705 36 170 3.2 8.0 0.00 0.00 0.00 46 1010.6
20260904231608 36 175 1.6 8.0 0.00 0.00 0.00 46 1010.2
20260904230805 37 177 3.2 6.4 0.00 0.00 0.00 46 1010.5
20260904230128 36 186 1.6 6.4 0.00 0.00 0.00 46 1010.1
20260904225905 37 165 3.2 6.4 0.00 0.00 0.00 45 1010.5
20260904225005 37 189 4.8 8.0 0.00 0.00 0.00 45 1010.5
20260904224503 36 182 3.2 9.7 0.00 0.00 0.00 45 1010.2
20260904224105 37 179 6.4 11.3 0.00 0.00 0.00 45 1010.7
20260904223003 37 138 3.2 11.3 0.00 0.00 0.00 45 1010.4
20260904222306 37 166 4.8 9.7 0.00 0.00 0.00 45 1010.7
20260904221504 37 214 4.8 12.9 0.00 0.00 0.00 45 1010.4
20260904220110 37 178 8.0 11.3 0.00 0.00 0.00 44 1010.4
20260904215605 37 146 4.8 8.0 0.00 0.00 0.00 44 1010.8
20260904214705 37 168 4.8 9.7 0.00 0.00 0.00 41 1010.8
20260904214512 37 126 3.2 9.7 0.00 0.00 0.00 42 1010.5
20260904213805 37 176 8.0 12.9 0.00 0.00 0.00 43 1010.9
20260904213107 37 193 9.7 14.5 0.00 0.00 0.00 42 1010.7
20260904212905 38 164 4.8 11.3 0.00 0.00 0.00 43 1011.0
20260904212005 38 149 3.2 8.0 0.00 0.00 0.00 41 1011.1
20260904211510 37 120 3.2 11.3 0.00 0.00 0.00 42 1010.8
20260904211105 37 167 6.4 14.5 0.00 0.00 0.00 40 1011.2
20260904210205 37 110 3.2 11.3 0.00 0.00 0.00 42 1011.3
20260904210011 37 169 0.0 14.5 0.00 0.00 0.00 42 1011.0
20260904205306 38 168 4.8 14.5 0.00 0.00 0.00 43 1011.4
20260904204512 37 157 1.6 11.3 0.00 0.00 0.00 43 1011.2
20260904204405 37 153 4.8 9.7 0.00 0.00 0.00 43 1011.5
20260904203505 37 148 4.8 9.7 0.00 0.00 0.00 43 1011.6
20260904203007 37 154 4.8 17.7 0.00 0.00 0.00 44 1011.4
20260904202605 37 181 6.4 17.7 0.00 0.00 0.00 43 1011.8
20260904201609 36 216 3.2 12.9 0.00 0.00 0.00 46 1011.6
20260904200009 36 227 6.4 16.1 0.00 0.00 0.00 44 1011.9
20260904195905 37 159 6.4 16.1 0.00 0.00 0.00 46 1012.2
20260904195005 37 162 4.8 12.9 0.00 0.00 0.00 46 1012.3
20260904194504 37 208 4.8 12.9 0.00 0.00 0.00 46 1012.1
20260904194105 37 164 4.8 16.1 0.00 0.00 0.00 47 1012.4
20260904193205 37 174 8.0 16.1 0.00 0.00 0.00 46 1012.4
20260904193004 37 193 4.8 16.1 0.00 0.00 0.00 47 1012.2
20260904192306 37 157 6.4 16.1 0.00 0.00 0.00 47 1012.6